www.pogodaiklimat.ru

Погода и климат >> Архив погоды >> Австралия >> Западная Австралия >> Озеро Грейс


ПОГОДА на Озере Грейс

  • Прогноз погоды на Озере Грейс
  • Монитор погоды на Озере Грейс

АРХИВ ПОГОДЫ на Озере Грейс

Время (UTC), дата Ветер
(напр.,м/с)
 
Видим.   Явления Облачность Т
(С)
Тd
(С)
f
(%)
Тe
(С)
Тes
(С)
Комфортность P
(гПа)
Po
(гПа)
Тmin
(С)
Tmax
(С)
R
(мм)
R24
(мм)
S
(см)
13 10.09 З 4 н/о н/о +20.2 +8.8 48 +22 +22 комфорт 1016.8 982.8 +32.4
15 10.09 З 6 н/о н/о +17.8 +8.1 53 +17 +17 1018.3 984.3
16 10.09 З 4 н/о н/о +15.5 +12.1 80 +15 +15 1018.4 984.4
18 10.09 СЗ 3 н/о н/о +13.8 +11.5 86 +13 +13 1018.5 984.5
19 10.09 СЗ 3 н/о н/о +13.9 +11.2 84 +13 +13 1018.8 984.8
21 10.09 СЗ 3 н/о н/о +12.2 +10.6 90 +11 +11 1019.4 985.4
22 10.09 СЗ 4 н/о н/о +12.3 +10.7 90 +10 +10 1020.0 985.9
00 11.09 С 3 н/о н/о +14.1 +12.0 87 +13 +13 1022.0 987.9
01 11.09 СЗ 4 н/о н/о +16.6 +12.2 75 +16 +16 1022.3 988.2 +12.1
03 11.09 СЗ 6 н/о н/о +20.6 +10.7 53 +22 +22 комфорт 1022.1 988.0
04 11.09 З 6 н/о н/о +22.1 +10.3 47 +24 +24 комфорт 1022.1 988.0
06 11.09 З 5 н/о н/о +23.8 +10.8 44 +25 +25 комфорт 1021.7 987.6
07 11.09 З 5 н/о н/о +23.3 +11.0 46 +26 +26 жарко 1021.9 987.8
09 11.09 СЗ 4 н/о н/о +22.8 +10.6 46 +25 +25 комфорт 1022.5 988.4
10 11.09 З 2 н/о н/о +21.0 +10.8 52 +24 +24 комфорт 1023.1 988.9
12 11.09 С 2 н/о н/о +15.5 +10.3 71 +16 +16 1024.3 990.1
13 11.09 С 1 н/о н/о +15.0 +10.6 75 +16 +16 1024.2 990.0 +24.5
15 11.09 штиль 0 н/о н/о +12.9 +10.1 83 +12 +12 1024.2 990.0
16 11.09 штиль 0 н/о н/о +12.8 +10.0 83 +12 +12 1024.2 990.0
18 11.09 штиль 0 н/о н/о +11.3 +8.7 84 +11 +11 1023.7 989.5
19 11.09 штиль 0 н/о н/о +9.5 +7.4 87 +9 +9 1023.5 989.3
21 11.09 СВ 2 н/о н/о +10.4 +9.2 92 +9 +9 1023.3 989.1
22 11.09 С 2 н/о н/о +10.8 +9.9 94 +10 +10 1023.2 989.0
00 12.09 С 3 н/о н/о +15.3 +12.1 81 +15 +15 1024.5 990.3
01 12.09 С 4 н/о н/о +19.3 +12.1 63 +20 +20 1024.4 990.2 +9.3
03 12.09 С 6 н/о н/о +24.5 +9.3 38 +25 +25 комфорт 1023.3 989.1
04 12.09 СЗ 4 н/о н/о +25.6 +9.8 37 +26 +26 жарко 1022.7 988.5
06 12.09 СЗ 5 н/о н/о +27.2 +9.5 33 +28 +28 жарко 1021.2 987.1
07 12.09 СЗ 5 н/о н/о +27.0 +6.4 27 +26 +26 жарко 1021.3 987.2
09 12.09 З 5 н/о н/о +26.3 +9.6 35 +27 +27 жарко 1022.4 988.3
10 12.09 ЮЗ 5 н/о н/о +23.3 +11.0 46 +26 +26 жарко 1023.3 989.1
12 12.09 З 1 н/о н/о +19.1 +10.4 57 +22 +22 комфорт 1024.3 990.1
13 12.09 СВ 1 н/о н/о +18.3 +10.4 60 +20 +20 1024.4 990.2 +28.1
15 12.09 Ю 2 н/о н/о +17.7 +10.8 64 +18 +18 1024.8 990.6
16 12.09 Ю 3 н/о н/о +16.1 +11.1 72 +16 +16 1024.4 990.2
18 12.09 Ю 2 н/о н/о +13.9 +10.9 82 +14 +14 1023.8 989.6
19 12.09 ЮВ 2 н/о н/о +12.9 +10.6 86 +12 +12 1023.5 989.3
21 12.09 В 3 н/о н/о +14.1 +13.8 98 +13 +13 1023.9 989.7
22 12.09 В 2 н/о н/о +14.3 +13.5 95 +14 +14 1024.3 990.1
00 13.09 В 2 н/о н/о +17.1 +13.2 78 +17 +17 1024.3 990.1
01 13.09 СВ 3 н/о н/о +18.8 +13.0 69 +20 +20 1024.3 990.1 +12.8
03 13.09 С 5 н/о н/о +22.7 +11.7 50 +25 +25 комфорт 1023.1 988.9
04 13.09 СЗ 5 н/о н/о +25.7 +10.7 39 +27 +27 жарко 1022.3 988.2
06 13.09 СЗ 5 н/о н/о +28.0 +8.8 30 +28 +28 жарко 1020.9 986.8
07 13.09 З 5 н/о н/о +28.6 +9.3 30 +29 +29 жарко 1020.3 986.2
09 13.09 З 4 н/о н/о +27.3 +8.2 30 +27 +27 жарко 1020.5 986.4
10 13.09 З 2 н/о н/о +25.1 +9.8 38 +26 +26 жарко 1020.7 986.6
12 13.09 З 1 н/о н/о +19.6 +10.9 57 +22 +22 комфорт 1021.7 987.6
13 13.09 штиль 0 н/о н/о +18.9 +11.7 63 +20 +20 1021.9 987.8 +29.2
15 13.09 Ю 3 н/о н/о +18.6 +12.6 68 +20 +20 1021.9 987.8
16 13.09 З 2 н/о н/о +17.5 +12.4 72 +18 +18 1022.8 988.6
18 13.09 штиль 0 н/о н/о +15.5 +11.1 75 +15 +15 1021.4 987.3
19 13.09 С 2 н/о н/о +15.2 +11.6 79 +15 +15 1020.9 986.8
21 13.09 С 2 н/о н/о +14.5 +11.5 82 +14 +14 1021.7 987.6
22 13.09 С 1 н/о н/о +14.4 +11.2 81 +16 +16 1022.1 988.0
00 14.09 З 5 н/о н/о +17.8 +13.1 74 +17 +17 1023.9 989.7
01 14.09 ЮЗ 4 н/о н/о +18.9 +13.7 72 +20 +20 1023.7 989.5 +14.2
03 14.09 ЮЗ 4 н/о н/о +20.1 +13.1 64 +22 +22 комфорт 1023.2 989.0
04 14.09 ЮЗ 3 н/о н/о +21.8 +13.4 59 +25 +25 комфорт 1022.8 988.6
06 14.09 ЮЗ 4 н/о н/о +23.5 +13.1 52 +26 +26 жарко 1021.0 986.9
07 14.09 СЗ 3 н/о н/о +24.0 +12.9 50 +26 +26 жарко 1020.5 986.4
09 14.09 ЮЗ 3 н/о н/о +23.4 +13.6 54 +27 +27 душно 1020.8 986.7
10 14.09 Ю 3 н/о н/о +21.4 +14.6 65 +24 +24 комфорт 1021.3 987.2
12 14.09 Ю 2 н/о н/о +18.8 +14.7 77 +20 +20 1022.4 988.3
13 14.09 Ю 2 н/о н/о +18.0 +14.5 80 +19 +19 1023.0 988.8 +24.7
15 14.09 ЮВ 6 н/о н/о +15.1 +13.3 89 +13 +13 1023.3 989.1
16 14.09 Ю 4 н/о н/о +14.6 +12.3 86 +13 +13 1023.4 989.2
18 14.09 ЮВ 5 н/о н/о +13.3 +10.7 84 +11 +11 1022.8 988.6
19 14.09 ЮВ 4 н/о н/о +13.1 +10.1 82 +11 +11 1023.2 989.0
21 14.09 Ю 3 н/о н/о +13.3 +9.9 80 +12 +12 1024.0 989.8
22 14.09 ЮВ 2 н/о н/о +12.9 +10.4 85 +12 +12 1024.3 990.1
00 15.09 ЮВ 4 н/о н/о +14.0 +10.4 79 +13 +13 1025.2 991.0
01 15.09 ЮВ 4 н/о н/о +15.2 +10.4 73 +14 +14 1025.1 990.9 +12.8
03 15.09 ЮВ 4 н/о н/о +17.3 +10.0 62 +17 +17 1024.4 990.2
04 15.09 Ю 4 н/о н/о +18.5 +10.3 59 +19 +19 1024.3 990.1
06 15.09 ЮВ 4 н/о н/о +19.4 +9.3 52 +20 +20 1023.5 989.3
07 15.09 ЮВ 4 н/о н/о +19.7 +9.6 52 +21 +21 комфорт 1023.2 989.0
09 15.09 Ю 4 н/о н/о +19.6 +8.3 48 +20 +20 1023.4 989.2
10 15.09 В 6 н/о н/о +16.8 +10.4 66 +16 +16 1023.9 989.7
12 15.09 В 7 н/о н/о +13.4 +10.8 84 +11 +11 1025.1 990.9
13 15.09 ЮВ 5 н/о н/о +12.6 +9.8 83 +10 +10 1025.8 991.5 +20.8
15 15.09 В 6 н/о н/о +11.8 +8.5 80 +9 +9 1025.7 991.4
16 15.09 ЮВ 4 н/о н/о +10.9 +8.1 83 +8 +8 1025.9 991.6
18 15.09 ЮВ 4 н/о н/о +9.8 +8.2 90 +7 +7 1025.7 991.4
19 15.09 ЮВ 3 н/о н/о +9.4 +7.8 90 +7 +7 1025.3 991.1
21 15.09 В 4 н/о н/о +8.8 +7.4 91 +6 +6 1025.4 991.2
22 15.09 В 4 н/о н/о +9.0 +7.3 89 +6 +6 1025.4 991.2
00 16.09 СВ 4 н/о н/о +12.3 +7.8 74 +10 +10 1025.4 991.2
01 16.09 СВ 7 н/о н/о +15.2 +7.0 58 +13 +13 1024.9 990.7 +8.3
03 16.09 СВ 6 н/о н/о +18.2 +7.3 49 +18 +18 1023.6 989.4
04 16.09 В 6 н/о н/о +19.5 +8.5 49 +20 +20 1022.3 988.2
06 16.09 СВ 4 н/о н/о +22.7 +9.5 43 +24 +24 комфорт 1020.3 986.2
07 16.09 В 4 н/о н/о +22.5 +9.0 42 +24 +24 комфорт 1019.8 985.7
09 16.09 В 3 н/о н/о +22.1 +9.6 45 +24 +24 комфорт 1018.9 984.9
10 16.09 ЮВ 4 н/о н/о +20.4 +9.3 49 +22 +22 комфорт 1019.0 985.0
12 16.09 ЮВ 3 н/о н/о +16.6 +8.8 60 +17 +17 1019.7 985.6
13 16.09 В 5 н/о н/о +15.4 +8.9 65 +14 +14 1020.4 986.3 +23.2
15 16.09 В 4 н/о н/о +13.9 +8.9 72 +13 +13 1018.9 984.9
16 16.09 В 3 н/о н/о +14.0 +8.8 71 +13 +13 1018.2 984.2
18 16.09 В 2 н/о н/о +13.3 +8.6 73 +13 +13 1017.0 983.0
19 16.09 штиль 0 н/о н/о +13.1 +8.6 74 +13 +13 1016.7 982.7
21 16.09 штиль 0 н/о н/о +12.4 +8.9 79 +12 +12 1016.7 982.7
22 16.09 С 1 н/о н/о +12.2 +7.9 75 +13 +13 1016.8 982.8
00 17.09 С 5 н/о н/о +17.9 +7.9 52 +18 +18 1016.8 982.8
01 17.09 С 5 н/о н/о +21.1 +8.0 43 +22 +22 комфорт 1016.5 982.6 +10.9
03 17.09 СЗ 5 н/о н/о +25.9 +8.8 34 +26 +26 жарко 1015.5 981.6
04 17.09 СЗ 5 н/о н/о +27.9 +9.2 31 +28 +28 жарко 1014.5 980.6
06 17.09 З 7 н/о н/о +28.4 +8.1 28 +28 +28 жарко 1013.1 979.3
07 17.09 СЗ 7 н/о н/о +28.1 +6.2 25 +27 +27 жарко 1012.9 979.1
09 17.09 З 5 н/о н/о +26.6 +5.0 25 +26 +26 жарко 1013.8 979.9
10 17.09 З 6 н/о н/о +23.9 +9.9 41 +25 +25 комфорт 1014.3 980.4
12 17.09 З 5 н/о н/о +19.8 +11.8 60 +21 +21 комфорт 1016.3 982.4
13 17.09 ЮЗ 4 н/о н/о +17.9 +11.0 64 +18 +18 1017.0 983.0 +29.3

 

Местоположение метеостанции Озеро Грейс (Западная Австралия, Австралия): широта -33.10 долгота 118.46 высота над уровнем моря 286 м.

В архиве по умолчанию представлена погода на Озере Грейс за последнюю неделю. Архивные данные за месяц целиком и за предыдущие месяцы, начиная с января 2011 года, Вы можете получить, выбрав интересующий диапазон дат из раскрывающегося списка и нажав кнопку "Ввод!".


*Определитесь, кто Вы:
робот инопланетянин человек

Внимание! Время в таблицах - всемирное. Для получения местного времени необходимо прибавить поправку, которая равна 8 ч.

Смотрите также архив погоды в соседних городах и на ближайших метеорологических станциях:

Погода в Ньюдегейте (Западная Австралия, Австралия) (35 км)
Погода в Катаннинге (Западная Австралия, Австралия) (103 км)
Погода в Джакапе (Западная Австралия, Австралия) (105 км)
Погода в Уондеринге (Западная Австралия, Австралия) (174 км)
Погода в Хоптауне (Западная Австралия, Австралия) (180 км)
Погода в Кандердине (Западная Австралия, Австралия) (202 км)
Погода в Роки Галли (Западная Австралия, Австралия) (211 км)
Погода в Олбани (Западная Австралия, Австралия) (212 км)
Погода в Мунглинап Запад (Западная Австралия, Австралия) (214 км)
Погода в Колли Восток (Западная Австралия, Австралия) (215 км)

Пояснения к столбцам:

Ветер - указаны скорость ветра в м/с - средняя за 10 мин, порывы в срок и между сроками (в фигурных скобках) и направление, откуда дует ветер: С - северный, СВ - северо-восточный, В - восточный, ЮВ - юго-восточный, Ю - южный, ЮЗ - юго-западный, З - западный, СЗ - северо-западный.
Видимость - горизонтальная дальность видимости в метрах или километрах. При видимости от 1 до 10 км при отсутствии осадков обычно наблюдается дымка, при ухудшении видимости до 1 км и менее - туман. В сухую погоду видимость может ухудшаться дымом, пылью или мглою.
Явления - указаны атмосферные явления, наблюдавшиеся в срок или в последний час перед сроком; фигурными скобками обозначены явления, наблюдавшиеся между сроками (за 1-3 часа до срока); квадратными скобками обозначены град или гололедные отложения с указанием их диаметра в мм.
Облачность - указаны через наклонную черту общая и нижняя облачность в баллах и высота нижней границы облаков в метрах; квадратными скобками обозначены формы облаков: Ci - перистые, Cs - перисто-слоистые, Cc - перисто-кучевые, Ac - высококучевые, As - высокослоистые, Sc - слоисто-кучевые, Ns - слоисто-дождевые, Cu - кучевые, Cb - кучево-дождевые. Подробнее классификацию облаков см. в Атласе облаков (PDF).
T - Температура воздуха - температура, измеренная на высоте 2 м над землей.
Td - Температура точки росы - температура, при понижении до которой содержащийся в воздухе водяной пар достигнет насыщения.
f - Относительная влажность воздуха - влажноcть воздуха, измеренная на высоте 2 м над землей.
Te - Эффективная температура - температура, которую ощущает одетый по сезону человек в тени. Характеристика душности погоды. При расчете учитывается влияние влажности воздуха и скорости ветра на теплоощущения человека.
Tes - Эффективная температура на солнце - температура, которую ощущает человек, с поправкой на солнечный нагрев. Характеристика знойности погоды. Зависит от высоты солнца над горизонтом, облачности и скорости ветра. Ночью, в пасмурную погоду, а также при ветре 12 м/с и более поправка равна нулю.
P - Атмосферное давление - приведенное к уровню моря атмосферное давление.
Po - Атмосферное давление - измеренное на уровне метеостанции атмосферное давление.
Tmin - Минимальная температура - минимум температуры воздуха на высоте 2 м над землей.
Tmax - Максимальная температура - максимум температуры воздуха на высоте 2 м над землей.
R - Количество осадков - Количество выпавших осадков за период времени, мм. При наведении курсора мыши на число - период времени, за который выпало указанное количество осадков.
R24 - Количество осадков - Количество выпавших осадков за 24 часа, мм.
S - Снежный покров - Высота снежного покрова, см. При наведении курсора мыши на число - состояние снежного покрова и степень покрытия местности в баллах.